Location: Kampong Paya Jaras Dalam
(3.1833°N, 101.5500°E)
Time: 05:15:14
(UTC+00:00)

Cosmos 1048 Rocket - Pass Details

Date: 15 May 2026
Orbit: 738 x 787 km, 74.0° (Epoch: 7 June)

Event Time Altitude Azimuth Distance (km) Brightness Sun altitude
Exits shadow 21:33:59 50° 249° (WSW) 937 4.0 -21.5°
Maximum altitude 21:34:44 55° 282° (WNW) 882 4.0 -21.3°
Drops below altitude 10° 21:39:40 10° 360° (N) 2,235 6.7 -20.2°
Sets 21:42:03 0° 5° (N) 3,156 7.5 -19.6°
